Location: Basse Occidentale du Courleau
(48.3833°N, 4.8333°W)
Time: 08:55:40
(UTC+00:00)

ALOS 2 - Pass Details

Date: 05 July 2020
Orbit: 630 x 632 km, 97.9° (Epoch: 07 August)

Event Time Altitude Azimuth Distance (km) Brightness Sun altitude
Exits shadow 23:35:34 38° 156° (SSE) 974 3.0 -18.1°
Maximum altitude 23:37:14 80° 75° (ENE) 649 2.6 -18.2°
Drops below altitude 10° 23:41:39 10° 349° (NNW) 2,025 6.5 -18.3°
Sets 23:43:52 0° 348° (NNW) 2,938 7.8 -18.4°
